Погода в Взваде

Россия / Новгородская область     58°09′37″N   31°28′15″E
темп.,
°C
ветер,
м/с
пор.,
м/с
влажн.,
%
обл.,
%
осадки,
мм/ч
давл.,
гПа
погр.,
м
24 января, пн
пн2400:00−10ю599285 0.0 1032150
03:00−10ю589382 0.0 1032151
06:00−9ю5109272 0.0 1031198
09:00−8ю6109294 0.0 1031206
12:00−6ююз71388100 0.0 1029370
15:00−4ююз7138686 0.0 1028438
18:00−5ююз7138742 0.0 1026279
21:00−5ююз81489100 0.1 1024389
25 января, вт
вт2500:00−5ююз71492100 0.4 1022401
03:00−4ююз71394100 0.8 1019389
06:00−3ююз61295100 0.5 1017382
09:00−3ююз61197100 1.4 1015360
12:00−1юз4998100 1.7 1014395
15:000сз5895100 2.3 1014402
18:00−2ссз6109380 0.1 1016281
21:00−5ссз599310 0.1 1018249
26 января, ср
ср2600:00−10сз359738 0.0 101964
03:00−13сз349866 0.0 102039
06:00−15сз229858 0.0 102114
09:00−17зсз119850 0.0 10219
12:00−14зюз229634 0.0 102131
15:00−11ю2295100 0.0 102044
18:00−9ю3694100 0.0 101894
21:00−9ю4890100 0.0 1016169
27 января, чт
чт2700:00−8ююв51188100 0.0 1013230
03:00−8ююв6138597 0.0 1011290
06:00−7ююв7138599 0.0 1008396
09:00−7ююв7129390 0.4 1006456
12:00−6ю7119399 0.5 1004429
15:00−5ю6109390 0.9 1003331
18:00−5ююв6109598 0.0 1001163
21:00−4ююв61193100 0.1 999321
28 января, пт
пт2800:00−4юв61293100 0.0 997325
03:00−4юв71395100 1.1 995430
06:00−3юв61296100 1.0 994427
09:00−3вюв51096100 2.3 994347
12:00−3в4796100 0.9 995284
15:00−2св4597100 1.9 996301
18:00−4с6996100 1.2 998336
21:00−5с61094100 1.7 1001395